Radiation Dose at Monitoring Post of Fukushima Daini Nuclear Power Station
Date,Time,MP-1(microSv/h),MP-2(microSv/h),MP-3(microSv/h),MP-4(microSv/h),MP-5(microSv/h),MP-6(microSv/h),MP-7(microSv/h),Wind Direction,Wind Velocity(m/s),Rain
2021/03/03,00:00,0.170,0.155,0.246,0.234,0.232,0.133,0.082,northwest,10.9,No
2021/03/03,00:10,0.169,0.154,0.247,0.233,0.234,0.133,0.082,northwest,11.8,No
2021/03/03,00:20,0.170,0.154,0.246,0.233,0.234,0.134,0.081,northwest,13.3,No
2021/03/03,00:30,0.170,0.154,0.246,0.233,0.234,0.133,0.082,northwest,11.2,No
2021/03/03,00:40,0.170,0.154,0.246,0.234,0.233,0.133,0.082,northwest,13.7,No
2021/03/03,00:50,0.170,0.154,0.247,0.234,0.232,0.133,0.083,northwest,12.8,No
2021/03/03,01:00,0.171,0.154,0.248,0.234,0.234,0.134,0.082,northwest,11.2,No
2021/03/03,01:10,0.170,0.154,0.248,0.234,0.233,0.133,0.081,north-northwest,11.7,No
2021/03/03,01:20,0.171,0.154,0.247,0.234,0.234,0.134,0.082,north-northwest,10.6,No
2021/03/03,01:30,0.170,0.154,0.249,0.234,0.233,0.134,0.083,north-northwest,10.1,No
2021/03/03,01:40,0.170,0.155,0.247,0.235,0.232,0.134,0.081,north-northwest,10.4,No
2021/03/03,01:50,0.170,0.155,0.247,0.235,0.234,0.132,0.083,north-northwest,8.7,No
2021/03/03,02:00,0.171,0.155,0.248,0.235,0.232,0.133,0.083,north-northwest,9.5,No
2021/03/03,02:10,0.171,0.154,0.248,0.234,0.233,0.133,0.082,north-northwest,9.2,No
2021/03/03,02:20,0.170,0.155,0.248,0.234,0.234,0.134,0.082,north-northwest,6.2,No
2021/03/03,02:30,0.171,0.155,0.249,0.235,0.233,0.133,0.081,north-northwest,7.6,No
2021/03/03,02:40,0.170,0.154,0.248,0.235,0.234,0.134,0.081,northwest,7.8,No
2021/03/03,02:50,0.170,0.154,0.248,0.235,0.233,0.134,0.081,north-northwest,8.7,No
2021/03/03,03:00,0.170,0.155,0.248,0.233,0.232,0.134,0.081,north-northwest,7.1,No
2021/03/03,03:10,0.170,0.155,0.248,0.234,0.233,0.133,0.082,north-northwest,6.0,No
2021/03/03,03:20,0.171,0.155,0.248,0.235,0.233,0.133,0.082,north-northwest,7.9,No
2021/03/03,03:30,0.170,0.154,0.247,0.235,0.233,0.134,0.082,northwest,9.2,No
2021/03/03,03:40,0.170,0.154,0.247,0.235,0.233,0.134,0.082,northwest,8.1,No
2021/03/03,03:50,0.170,0.154,0.248,0.234,0.233,0.134,0.082,north-northwest,9.0,No
2021/03/03,04:00,0.169,0.155,0.248,0.235,0.234,0.133,0.082,north-northwest,7.3,No
2021/03/03,04:10,0.171,0.155,0.247,0.234,0.232,0.133,0.082,north-northwest,7.1,No
2021/03/03,04:20,0.170,0.154,0.248,0.235,0.234,0.133,0.082,north-northwest,9.0,No
2021/03/03,04:30,0.170,0.154,0.248,0.235,0.233,0.134,0.082,north-northwest,8.7,No
2021/03/03,04:40,0.170,0.153,0.247,0.234,0.233,0.133,0.082,north-northwest,8.4,No
2021/03/03,04:50,0.170,0.154,0.249,0.235,0.233,0.135,0.082,northwest,8.2,No
2021/03/03,05:00,0.170,0.155,0.247,0.234,0.233,0.134,0.082,north-northwest,10.1,No
2021/03/03,05:10,0.172,0.155,0.249,0.234,0.233,0.134,0.082,northwest,7.5,No
2021/03/03,05:20,0.171,0.154,0.248,0.234,0.235,0.133,0.082,northwest,7.5,No
2021/03/03,05:30,0.171,0.155,0.248,0.235,0.234,0.134,0.082,northwest,7.7,No
2021/03/03,05:40,0.171,0.155,0.248,0.235,0.234,0.134,0.082,northwest,9.6,No
2021/03/03,05:50,0.171,0.154,0.248,0.235,0.234,0.134,0.082,northwest,10.9,No
2021/03/03,06:00,0.171,0.154,0.248,0.235,0.233,0.133,0.083,north-northwest,11.8,No
2021/03/03,06:10,0.170,0.155,0.247,0.234,0.235,0.134,0.082,northwest,10.6,No
2021/03/03,06:20,0.170,0.154,0.247,0.234,0.234,0.134,0.082,north-northwest,10.7,No
2021/03/03,06:30,0.171,0.155,0.247,0.234,0.234,0.133,0.082,north-northwest,11.2,No
2021/03/03,06:40,0.171,0.155,0.248,0.234,0.233,0.135,0.083,north-northwest,10.1,No
2021/03/03,06:50,0.172,0.155,0.249,0.234,0.233,0.135,0.082,north-northwest,9.2,No
2021/03/03,07:00,0.172,0.154,0.249,0.235,0.233,0.134,0.082,north-northwest,8.7,No
2021/03/03,07:10,0.170,0.155,0.247,0.235,0.233,0.134,0.082,north-northwest,8.8,No
2021/03/03,07:20,0.171,0.155,0.249,0.235,0.234,0.134,0.082,north-northwest,7.5,No
2021/03/03,07:30,0.171,0.155,0.249,0.235,0.234,0.134,0.082,northwest,7.0,No
2021/03/03,07:40,0.171,0.155,0.248,0.234,0.233,0.135,0.082,north-northwest,6.3,No
2021/03/03,07:50,0.171,0.154,0.248,0.235,0.234,0.135,0.081,north-northwest,6.5,No
2021/03/03,08:00,0.170,0.154,0.250,0.235,0.234,0.134,0.081,north-northwest,7.0,No
2021/03/03,08:10,0.172,0.154,0.249,0.233,0.234,0.133,0.082,north-northwest,6.9,No
2021/03/03,08:20,0.171,0.154,0.248,0.235,0.233,0.135,0.081,northwest,7.8,No
2021/03/03,08:30,0.172,0.154,0.248,0.235,0.234,0.135,0.082,northwest,9.2,No
2021/03/03,08:40,0.172,0.154,0.247,0.234,0.234,0.133,0.082,northwest,8.4,No
2021/03/03,08:50,0.172,0.154,0.248,0.234,0.234,0.135,0.082,northwest,9.3,No
2021/03/03,09:00,0.171,0.155,0.248,0.234,0.234,0.135,0.081,northwest,9.0,No
2021/03/03,09:10,0.171,0.154,0.248,0.235,0.233,0.135,0.082,north-northwest,8.1,No
2021/03/03,09:20,0.172,0.154,0.249,0.235,0.233,0.134,0.082,north-northwest,9.0,No
2021/03/03,09:30,0.171,0.154,0.248,0.236,0.233,0.135,0.082,north-northwest,7.9,No
2021/03/03,09:40,0.171,0.155,0.248,0.233,0.232,0.134,0.082,northwest,10.0,No
2021/03/03,09:50,0.171,0.154,0.248,0.234,0.233,0.134,0.082,northwest,11.7,No
2021/03/03,10:00,0.171,0.154,0.247,0.235,0.234,0.135,0.082,northwest,11.4,No
2021/03/03,10:10,0.171,0.155,0.248,0.236,0.234,0.134,0.083,northwest,10.9,No
2021/03/03,10:20,0.172,0.155,0.248,0.235,0.233,0.135,0.082,west-northwest,11.4,No
2021/03/03,10:30,0.171,0.154,0.249,0.235,0.234,0.134,0.083,west-northwest,8.5,No
2021/03/03,10:40,0.170,0.155,0.249,0.235,0.233,0.135,0.083,north-northwest,10.6,No
2021/03/03,10:50,0.171,0.154,0.248,0.235,0.235,0.135,0.082,northwest,9.6,No
2021/03/03,11:00,0.172,0.154,0.248,0.234,0.235,0.134,0.083,northwest,9.5,No
2021/03/03,11:10,0.170,0.155,0.251,0.235,0.234,0.134,0.082,northwest,11.2,No
2021/03/03,11:20,0.170,0.155,0.249,0.234,0.236,0.134,0.082,northwest,7.8,No
2021/03/03,11:30,0.172,0.156,0.248,0.235,0.233,0.135,0.082,northwest,8.7,No
2021/03/03,11:40,0.171,0.154,0.250,0.237,0.234,0.134,0.082,north-northwest,7.6,No
2021/03/03,11:50,0.172,0.155,0.250,0.234,0.235,0.135,0.083,northwest,7.1,No
2021/03/03,12:00,0.171,0.154,0.248,0.237,0.235,0.135,0.083,northwest,6.3,No
2021/03/03,12:10,0.171,0.156,0.248,0.235,0.236,0.135,0.082,north-northwest,6.6,No
2021/03/03,12:20,0.171,0.155,0.249,0.234,0.233,0.134,0.082,northwest,7.4,No
2021/03/03,12:30,0.171,0.155,0.249,0.236,0.236,0.134,0.082,northwest,8.1,No
2021/03/03,12:40,0.172,0.155,0.248,0.234,0.234,0.135,0.082,northwest,6.4,No
2021/03/03,12:50,0.170,0.154,0.250,0.236,0.235,0.136,0.083,northwest,6.3,No
2021/03/03,13:00,0.171,0.155,0.250,0.236,0.234,0.136,0.082,north,3.7,No
2021/03/03,13:10,0.172,0.154,0.248,0.236,0.235,0.135,0.082,north-northeast,6.3,No
2021/03/03,13:20,0.171,0.154,0.249,0.234,0.234,0.136,0.083,north-northeast,8.2,No
2021/03/03,13:30,0.172,0.155,0.249,0.235,0.234,0.135,0.083,north-northeast,9.2,No
2021/03/03,13:40,0.171,0.155,0.250,0.236,0.234,0.135,0.082,north-northeast,7.9,No
2021/03/03,13:50,0.171,0.155,0.250,0.235,0.235,0.134,0.083,north-northeast,8.8,No
2021/03/03,14:00,0.172,0.154,0.250,0.236,0.237,0.136,0.082,north-northeast,7.4,No
2021/03/03,14:10,0.171,0.155,0.249,0.235,0.234,0.135,0.082,north-northeast,8.4,No
2021/03/03,14:20,0.172,0.155,0.250,0.236,0.236,0.135,0.082,north-northeast,7.4,No
2021/03/03,14:30,0.172,0.156,0.250,0.236,0.234,0.134,0.082,north-northeast,10.1,No
2021/03/03,14:40,0.172,0.155,0.249,0.236,0.236,0.135,0.082,north-northeast,8.4,No
2021/03/03,14:50,0.172,0.155,0.251,0.236,0.235,0.135,0.083,north-northeast,9.8,No
2021/03/03,15:00,0.171,0.156,0.250,0.238,0.234,0.135,0.082,north-northeast,8.6,No
2021/03/03,15:10,0.172,0.155,0.250,0.238,0.236,0.135,0.082,north-northeast,9.2,No
2021/03/03,15:20,0.172,0.155,0.251,0.238,0.235,0.136,0.083,north-northeast,7.6,No
2021/03/03,15:30,0.172,0.156,0.251,0.237,0.234,0.135,0.082,north-northeast,7.5,No
2021/03/03,15:40,0.172,0.155,0.250,0.237,0.236,0.136,0.082,north,9.2,No
2021/03/03,15:50,0.171,0.155,0.251,0.238,0.236,0.136,0.083,north,9.5,No
2021/03/03,16:00,0.173,0.156,0.251,0.238,0.235,0.136,0.082,north-northeast,8.7,No
2021/03/03,16:10,0.173,0.156,0.251,0.238,0.235,0.135,0.083,north-northeast,7.7,No
2021/03/03,16:20,0.172,0.155,0.251,0.237,0.236,0.137,0.083,north-northeast,6.3,No
2021/03/03,16:30,0.173,0.155,0.250,0.236,0.236,0.136,0.083,north-northeast,8.5,No
2021/03/03,16:40,0.173,0.156,0.250,0.238,0.234,0.137,0.083,north,8.3,No
2021/03/03,16:50,0.173,0.156,0.251,0.237,0.234,0.137,0.082,north,8.1,No
2021/03/03,17:00,0.174,0.155,0.251,0.237,0.235,0.137,0.083,north,6.4,No
2021/03/03,17:10,0.172,0.156,0.250,0.238,0.235,0.136,0.083,north,7.4,No
2021/03/03,17:20,0.172,0.156,0.251,0.236,0.236,0.135,0.083,north,6.3,No
2021/03/03,17:30,0.173,0.156,0.251,0.238,0.236,0.137,0.083,north,5.3,No
2021/03/03,17:40,0.172,0.156,0.250,0.238,0.235,0.135,0.083,north,6.2,No
2021/03/03,17:50,0.172,0.156,0.250,0.237,0.236,0.137,0.082,north,5.8,No
2021/03/03,18:00,0.173,0.156,0.250,0.237,0.236,0.135,0.082,north-northwest,5.0,No
2021/03/03,18:10,0.173,0.155,0.251,0.238,0.236,0.136,0.083,north-northwest,4.7,No
2021/03/03,18:20,0.173,0.157,0.250,0.238,0.235,0.136,0.083,north-northwest,5.0,No
2021/03/03,18:30,0.172,0.156,0.252,0.238,0.234,0.135,0.083,northwest,4.5,No
2021/03/03,18:40,0.173,0.156,0.250,0.237,0.236,0.136,0.082,north-northwest,5.5,No
2021/03/03,18:50,0.172,0.156,0.251,0.237,0.235,0.135,0.083,north-northwest,5.1,No
2021/03/03,19:00,0.172,0.156,0.250,0.237,0.235,0.136,0.083,north-northwest,5.1,No
2021/03/03,19:10,0.172,0.155,0.250,0.237,0.235,0.136,0.082,north-northwest,5.2,No
2021/03/03,19:20,0.172,0.156,0.250,0.238,0.234,0.136,0.083,northwest,5.0,No
2021/03/03,19:30,0.172,0.155,0.250,0.237,0.235,0.136,0.083,north-northwest,5.4,No
2021/03/03,19:40,0.173,0.156,0.250,0.237,0.234,0.135,0.082,north-northwest,6.6,No
2021/03/03,19:50,0.173,0.155,0.250,0.237,0.235,0.136,0.083,north-northwest,6.5,No
2021/03/03,20:00,0.172,0.155,0.251,0.237,0.235,0.136,0.082,north-northwest,5.9,No
2021/03/03,20:10,0.174,0.155,0.251,0.238,0.235,0.136,0.083,north-northwest,7.0,No
2021/03/03,20:20,0.173,0.156,0.252,0.237,0.235,0.136,0.083,north-northwest,7.3,No
2021/03/03,20:30,0.173,0.156,0.251,0.236,0.236,0.136,0.083,north-northwest,6.5,No
2021/03/03,20:40,0.173,0.156,0.250,0.237,0.236,0.136,0.083,north-northwest,6.5,No
2021/03/03,20:50,0.173,0.156,0.250,0.237,0.235,0.137,0.083,north-northwest,6.7,No
2021/03/03,21:00,0.173,0.156,0.251,0.237,0.235,0.136,0.083,north-northwest,6.7,No
2021/03/03,21:10,0.172,0.156,0.250,0.237,0.236,0.137,0.083,north-northwest,6.6,No
2021/03/03,21:20,0.173,0.156,0.251,0.238,0.235,0.135,0.082,north-northwest,6.0,No
2021/03/03,21:30,0.172,0.156,0.251,0.237,0.234,0.136,0.083,northwest,5.9,No
2021/03/03,21:40,0.173,0.155,0.250,0.238,0.234,0.136,0.083,northwest,5.8,No
2021/03/03,21:50,0.173,0.155,0.250,0.238,0.234,0.136,0.083,northwest,5.6,No
2021/03/03,22:00,0.173,0.156,0.250,0.237,0.235,0.136,0.084,north-northwest,5.9,No
2021/03/03,22:10,0.173,0.157,0.249,0.238,0.234,0.135,0.082,north-northwest,6.0,No
2021/03/03,22:20,0.173,0.156,0.250,0.238,0.235,0.136,0.083,north-northwest,5.7,No
2021/03/03,22:30,0.172,0.155,0.251,0.237,0.236,0.136,0.083,northwest,5.7,No
2021/03/03,22:40,0.172,0.155,0.251,0.237,0.235,0.137,0.083,northwest,5.4,No
2021/03/03,22:50,0.173,0.157,0.251,0.235,0.235,0.135,0.083,northwest,5.7,No
2021/03/03,23:00,0.173,0.157,0.251,0.237,0.235,0.136,0.083,north-northwest,5.5,No
2021/03/03,23:10,0.172,0.156,0.251,0.238,0.234,0.135,0.083,north-northwest,5.5,No
2021/03/03,23:20,0.172,0.156,0.251,0.237,0.235,0.137,0.083,northwest,5.2,No
2021/03/03,23:30,0.173,0.155,0.250,0.237,0.236,0.136,0.083,northwest,5.2,No
2021/03/03,23:40,0.172,0.156,0.250,0.237,0.235,0.135,0.083,northwest,5.1,No
2021/03/03,23:50,0.172,0.155,0.250,0.237,0.235,0.136,0.083,north-northwest,5.1,No
